SQ6MTB Weather Reports


Display with metric or nautical units.
time (UTC)temp
F
wind
direction
speed
MPH
gust
MPH
rain 1hr
in
rain 24hr
in
rain mn
in
humidity
%
barometer
mb
20260508122548 52 5 3.0 6.0 0.00 0.11 0.02 70 1020.5
20260508122105 52 5 0.0 5.0 0.00 0.11 0.02 71 1020.5
20260508121525 52 337 1.0 4.0 0.00 0.11 0.02 69 1020.5
20260508121041 52 9 1.0 4.0 0.00 0.11 0.02 70 1020.6
20260508120557 52 5 1.0 8.0 0.00 0.11 0.02 71 1020.7
20260508120020 52 346 2.0 8.0 0.00 0.11 0.02 71 1020.6
20260508115537 52 12 2.0 6.0 0.00 0.11 0.02 73 1020.7
20260508115052 52 5 0.0 6.0 0.00 0.11 0.02 72 1020.7
20260508114516 52 355 1.0 8.0 0.00 0.11 0.02 72 1020.7
20260508114033 52 336 1.0 5.0 0.00 0.11 0.02 71 1020.5
20260508113551 52 355 1.0 5.0 0.00 0.11 0.02 71 1020.6
20260508113005 52 342 1.0 5.0 0.00 0.11 0.02 70 1020.6
20260508112520 52 70 0.0 5.0 0.00 0.11 0.02 72 1020.5
20260508112046 52 248 1.0 4.0 0.00 0.11 0.02 72 1020.4
20260508111603 51 21 0.0 4.0 0.00 0.11 0.02 73 1020.4
20260508111026 51 325 1.0 4.0 0.00 0.11 0.02 72 1020.4
20260508110542 51 323 0.0 4.0 0.00 0.11 0.02 73 1020.5
20260508110133 51 360 0.0 3.0 0.00 0.11 0.02 74 1020.6
20260508105512 51 38 1.0 3.0 0.00 0.13 0.02 75 1020.6
20260508105038 51 360 0.0 2.0 0.00 0.13 0.02 74 1020.7
20260508104555 51 360 0.0 2.0 0.00 0.13 0.02 77 1020.6
20260508104015 51 351 0.0 2.0 0.00 0.13 0.02 75 1020.6
20260508103531 50 351 0.0 6.0 0.00 0.13 0.02 76 1020.6
20260508103049 50 346 3.0 6.0 0.00 0.13 0.02 76 1020.6
20260508102515 50 331 2.0 4.0 0.00 0.13 0.02 78 1020.7
20260508102029 50 299 1.0 4.0 0.00 0.13 0.02 78 1020.6
20260508101552 50 48 0.0 4.0 0.00 0.13 0.02 77 1020.7
20260508101103 50 30 1.0 4.0 0.00 0.13 0.02 78 1020.6
20260508100517 50 54 0.0 6.0 0.00 0.13 0.02 78 1020.7
20260508100030 50 306 3.0 6.0 0.00 0.13 0.02 77 1020.7
20260508095548 50 15 0.0 4.0 0.00 0.14 0.02 77 1020.7
20260508095052 50 341 2.0 5.0 0.00 0.14 0.02 78 1020.6
20260508094602 50 350 1.0 6.0 0.00 0.14 0.02 78 1020.7
20260508094015 50 328 0.0 5.0 0.00 0.14 0.02 79 1020.6
20260508093531 50 61 1.0 5.0 0.00 0.14 0.02 79 1020.7
20260508093057 49 40 1.0 3.0 0.00 0.14 0.02 80 1020.6
20260508092512 49 84 1.0 5.0 0.00 0.14 0.02 79 1020.6
20260508092029 49 74 1.0 5.0 0.00 0.14 0.02 80 1020.6
20260508091544 49 53 0.0 5.0 0.00 0.14 0.02 81 1020.7
20260508091101 48 50 1.0 5.0 0.00 0.14 0.02 81 1020.7
20260508090513 48 41 1.0 5.0 0.00 0.14 0.02 81 1020.7
20260508085558 48 276 0.0 0.0 0.00 0.14 0.02 83 1020.7
20260508085011 48 39 0.0 4.0 0.00 0.14 0.02 83 1020.7
20260508084538 48 49 1.0 5.0 0.00 0.14 0.02 83 1020.6
20260508084056 48 89 2.0 5.0 0.00 0.14 0.02 84 1020.6
20260508083507 47 59 1.0 4.0 0.00 0.14 0.02 85 1020.6
20260508083031 47 43 0.0 5.0 0.00 0.14 0.02 85 1020.6
20260508082547 47 113 2.0 5.0 0.00 0.14 0.02 85 1020.5
20260508082002 47 61 3.0 4.0 0.00 0.14 0.02 86 1020.4
20260508081529 47 57 1.0 4.0 0.00 0.14 0.02 86 1020.4
20260508081043 46 37 1.0 5.0 0.00 0.14 0.02 86 1020.4
20260508080559 46 53 3.0 5.0 0.00 0.14 0.02 87 1020.4
20260508080013 46 79 2.0 5.0 0.00 0.14 0.02 87 1020.5
20260508075539 46 55 2.0 4.0 0.00 0.17 0.02 87 1020.4
20260508075055 46 78 0.0 3.0 0.00 0.17 0.02 87 1020.4
20260508074523 46 41 1.0 5.0 0.00 0.17 0.02 87 1020.4
20260508074035 46 76 1.0 5.0 0.00 0.17 0.02 87 1020.3
20260508073553 46 46 2.0 5.0 0.00 0.17 0.02 88 1020.3
20260508073016 46 5 2.0 4.0 0.00 0.17 0.02 88 1020.2
20260508072534 46 360 0.0 4.0 0.00 0.17 0.02 89 1020.0
20260508072053 46 46 1.0 7.0 0.00 0.17 0.02 89 1020.0
20260508071513 45 64 2.0 7.0 0.00 0.17 0.02 89 1019.9
20260508071029 45 11 2.0 4.0 0.00 0.17 0.02 89 1019.9
20260508070547 45 68 0.0 5.0 0.00 0.17 0.02 90 1019.9
20260508070108 45 55 1.0 7.0 0.00 0.17 0.02 90 1019.8
20260508065517 45 63 3.0 7.0 0.00 0.18 0.02 90 1019.8
20260508065035 45 47 1.0 5.0 0.00 0.18 0.02 90 1019.7
20260508064552 45 55 1.0 5.0 0.00 0.18 0.02 90 1019.7
20260508064100 45 28 2.0 5.0 0.00 0.18 0.02 90 1019.6
20260508063517 45 52 2.0 5.0 0.00 0.18 0.02 91 1019.6
20260508063041 45 63 2.0 5.0 0.00 0.18 0.02 91 1019.6
20260508062559 45 24 2.0 6.0 0.00 0.18 0.02 91 1019.5
20260508062010 45 65 2.0 6.0 0.00 0.18 0.02 91 1019.5
20260508061537 45 30 1.0 4.0 0.00 0.18 0.02 91 1019.5
20260508061048 45 40 1.0 5.0 0.00 0.18 0.02 91 1019.5
20260508060502 44 42 1.0 5.0 0.00 0.18 0.02 91 1019.5
20260508060020 44 51 1.0 6.0 0.00 0.18 0.02 91 1019.4
20260508055545 44 355 2.0 6.0 0.00 0.18 0.02 91 1019.3
20260508055100 44 22 1.0 6.0 0.00 0.18 0.02 91 1019.4
20260508054514 44 11 2.0 6.0 0.00 0.18 0.02 91 1019.4
20260508054031 44 11 0.0 4.0 0.00 0.18 0.02 91 1019.4
20260508053550 44 17 0.0 4.0 0.00 0.18 0.02 91 1019.3
20260508053011 44 17 1.0 5.0 0.00 0.18 0.02 91 1019.3
20260508052528 44 26 2.0 5.0 0.00 0.18 0.02 91 1019.3
20260508052044 44 26 0.0 3.0 0.00 0.18 0.02 91 1019.3
20260508051602 44 65 0.0 2.0 0.00 0.18 0.02 91 1019.3
20260508051016 44 38 0.0 4.0 0.00 0.18 0.02 91 1019.3
20260508050544 44 23 0.0 4.0 0.00 0.18 0.02 91 1019.3
20260508050059 44 19 0.0 4.0 0.00 0.18 0.02 91 1019.2
20260508045511 44 59 2.0 4.0 0.00 0.18 0.02 91 1019.1
20260508045040 44 360 0.0 5.0 0.00 0.18 0.02 91 1019.1
20260508044603 44 73 3.0 5.0 0.00 0.18 0.02 91 1019.0
20260508044014 44 44 2.0 4.0 0.00 0.18 0.02 91 1019.1
20260508043529 44 19 1.0 4.0 0.00 0.18 0.02 91 1019.0
20260508043046 44 38 1.0 4.0 0.00 0.18 0.02 91 1018.9
20260508042510 44 360 1.0 5.0 0.00 0.18 0.02 91 1018.8
20260508042024 44 5 0.0 5.0 0.00 0.18 0.02 91 1018.8
20260508041551 44 5 0.0 4.0 0.00 0.18 0.02 91 1018.8
20260508041047 44 19 0.0 3.0 0.00 0.18 0.02 91 1018.8
20260508040503 44 42 0.0 4.0 0.00 0.18 0.02 91 1018.7
20260508040029 44 5 1.0 4.0 0.00 0.18 0.02 91 1018.6
20260508035546 44 5 0.0 5.0 0.00 0.24 0.02 91 1018.6
20260508035102 44 38 1.0 5.0 0.00 0.24 0.02 91 1018.6
20260508034525 44 5 2.0 5.0 0.00 0.24 0.02 91 1018.5
20260508034042 44 14 3.0 5.0 0.00 0.24 0.02 91 1018.6
20260508033558 44 50 1.0 4.0 0.00 0.24 0.02 91 1018.5
20260508033028 44 24 0.0 1.0 0.00 0.24 0.02 91 1018.5
20260508032536 44 350 0.0 3.0 0.00 0.24 0.02 91 1018.5
20260508032055 44 16 0.0 3.0 0.00 0.24 0.02 91 1018.4
20260508031516 44 336 0.0 4.0 0.00 0.24 0.02 91 1018.5
20260508031032 44 11 1.0 4.0 0.00 0.24 0.02 91 1018.5
20260508030550 44 60 0.0 3.0 0.00 0.24 0.02 91 1018.3
20260508030004 44 360 0.0 2.0 0.00 0.24 0.02 91 1018.5
20260508025522 44 360 0.0 2.0 0.00 0.46 0.02 91 1018.4
20260508025040 44 28 0.0 0.0 0.00 0.46 0.02 91 1018.4
20260508024605 44 28 0.0 2.0 0.00 0.46 0.02 91 1018.4
20260508024018 44 30 0.0 2.0 0.00 0.46 0.02 91 1018.4
20260508023535 44 40 0.0 3.0 0.00 0.46 0.02 91 1018.4
20260508023053 44 13 0.0 3.0 0.00 0.46 0.02 91 1018.4
20260508022516 44 67 1.0 3.0 0.00 0.46 0.02 91 1018.4
20260508022033 44 40 0.0 2.0 0.00 0.46 0.02 91 1018.4
20260508021602 44 9 0.0 2.0 0.00 0.46 0.02 91 1018.3
20260508021012 44 37 0.0 2.0 0.00 0.46 0.02 91 1018.4
20260508020529 44 65 0.0 3.0 0.00 0.46 0.02 91 1018.4
20260508020056 44 13 0.0 3.0 0.00 0.46 0.02 91 1018.3
20260508015509 44 67 0.0 2.0 0.00 0.55 0.02 91 1018.3
20260508015036 44 53 0.0 3.0 0.00 0.55 0.02 91 1018.3
20260508014554 44 32 0.0 4.0 0.00 0.55 0.02 91 1018.2
20260508014007 44 343 1.0 4.0 0.00 0.55 0.02 91 1018.2
20260508013534 44 40 0.0 4.0 0.00 0.55 0.02 91 1018.2
20260508013051 44 86 1.0 4.0 0.00 0.55 0.02 91 1018.2
20260508012506 44 22 0.0 4.0 0.00 0.55 0.02 91 1018.2
20260508012023 44 63 0.0 4.0 0.00 0.55 0.02 91 1018.1
20260508011540 44 63 2.0 4.0 0.00 0.55 0.02 91 1018.2
20260508011050 44 59 1.0 4.0 0.00 0.55 0.02 91 1018.2
20260508010502 44 61 0.0 5.0 0.00 0.55 0.02 91 1018.2
20260508010038 44 19 0.0 4.0 0.00 0.55 0.02 91 1018.2
20260508005544 44 56 1.0 4.0 0.00 0.55 0.02 91 1018.1
20260508005105 44 32 0.0 4.0 0.00 0.55 0.02 91 1018.1
20260508004525 44 41 1.0 4.0 0.00 0.55 0.02 91 1018.0
20260508004043 44 44 1.0 4.0 0.00 0.55 0.02 91 1018.1
20260508003557 44 16 1.0 4.0 0.00 0.55 0.02 91 1018.0
20260508003022 44 39 1.0 3.0 0.00 0.55 0.02 91 1018.1
20260508002536 44 25 0.0 4.0 0.00 0.55 0.02 91 1018.0
20260508002052 44 49 1.0 4.0 0.00 0.55 0.02 91 1018.1
20260508001526 44 57 1.0 5.0 0.00 0.55 0.02 91 1018.2
20260508001034 44 343 1.0 5.0 0.00 0.55 0.02 91 1018.1
20260508000551 44 360 3.0 6.0 0.00 0.55 0.02 91 1018.2
20260508000004 44 16 1.0 8.0 0.00 0.55 0.02 91 1018.1
20260507235530 44 40 3.0 8.0 0.00 0.55 0.02 91 1018.1
20260507235046 44 40 3.0 5.0 0.00 0.55 0.02 91 1018.1
20260507234501 44 13 1.0 4.0 0.00 0.55 0.02 91 1018.2
20260507234027 44 52 1.0 7.0 0.01 0.55 0.02 91 1018.3
20260507233543 44 41 1.0 7.0 0.01 0.55 0.02 91 1018.3
20260507233108 44 28 1.0 3.0 0.01 0.55 0.02 91 1018.4
20260507232523 44 343 0.0 3.0 0.01 0.55 0.02 91 1018.3
20260507232039 44 351 1.0 5.0 0.01 0.55 0.02 91 1018.4
20260507231559 44 346 0.0 5.0 0.01 0.55 0.02 91 1018.3
20260507231019 44 60 0.0 4.0 0.01 0.55 0.02 91 1018.2
20260507230541 44 40 1.0 5.0 0.02 0.55 0.02 91 1018.3
20260507230056 44 31 1.0 5.0 0.02 0.55 0.02 91 1018.3
20260507225516 44 30 0.0 4.0 0.02 0.55 0.02 91 1018.3
20260507225034 44 350 1.0 4.0 0.02 0.55 0.02 91 1018.4
20260507224606 44 16 0.0 3.0 0.02 0.55 0.02 91 1018.4
20260507224011 44 44 0.0 4.0 0.02 0.54 0.01 91 1018.4
20260507223602 44 24 0.0 4.0 0.02 0.54 0.01 91 1018.4
20260507223011 44 34 0.0 3.0 0.02 0.54 0.01 91 1018.5
20260507222538 44 38 0.0 4.0 0.02 0.54 0.01 91 1018.4
20260507222054 44 58 1.0 4.0 0.02 0.54 0.01 91 1018.3
20260507221522 44 59 1.0 4.0 0.02 0.54 0.01 91 1018.4
20260507221032 45 37 1.0 3.0 0.02 0.54 0.01 91 1018.3
20260507220550 45 55 0.0 3.0 0.02 0.54 0.00 91 1018.3
20260507220018 45 43 1.0 5.0 0.02 0.54 0.00 91 1018.3
20260507215529 45 48 1.0 5.0 0.02 0.54 0.54 91 1018.3
20260507215046 45 58 0.0 4.0 0.02 0.54 0.54 91 1018.3
20260507214602 45 59 1.0 4.0 0.02 0.54 0.54 91 1018.3
20260507214012 45 38 0.0 6.0 0.02 0.53 0.53 91 1018.3
20260507213540 45 17 2.0 6.0 0.02 0.53 0.53 91 1018.3
20260507213058 45 48 1.0 4.0 0.02 0.53 0.53 91 1018.2
20260507212512 45 35 0.0 3.0 0.02 0.52 0.52 91 1018.2
20260507212037 45 11 1.0 3.0 0.02 0.52 0.52 91 1018.2
20260507211554 45 37 0.0 5.0 0.02 0.52 0.52 91 1018.0
20260507211015 45 5 1.0 5.0 0.02 0.52 0.52 91 1018.0
20260507210533 45 50 1.0 4.0 0.02 0.52 0.52 91 1018.0
20260507210113 45 43 0.0 4.0 0.01 0.51 0.51 91 1017.9
20260507205514 45 11 1.0 6.0 0.01 0.51 0.51 91 1017.8
20260507205028 45 51 0.0 3.0 0.01 0.51 0.51 91 1017.9
20260507204552 45 36 0.0 6.0 0.01 0.51 0.51 91 1017.7
20260507204104 45 50 3.0 6.0 0.00 0.50 0.50 91 1017.8
20260507203513 45 63 2.0 6.0 0.00 0.50 0.50 91 1017.7
20260507203030 45 28 1.0 5.0 0.00 0.50 0.50 91 1017.6
20260507202550 45 360 1.0 5.0 0.00 0.50 0.50 90 1017.5
20260507202002 45 13 2.0 5.0 0.00 0.50 0.50 90 1017.4
20260507201533 45 14 1.0 3.0 0.00 0.50 0.50 90 1017.4
20260507201044 45 13 0.0 5.0 0.00 0.50 0.50 90 1017.4
20260507200601 45 19 2.0 5.0 0.00 0.50 0.50 90 1017.4
20260507200034 45 32 1.0 6.0 0.00 0.50 0.50 90 1017.2
20260507195539 45 40 2.0 8.0 0.00 0.50 0.50 90 1017.2
20260507195054 45 360 2.0 8.0 0.00 0.50 0.50 90 1017.2
20260507194517 45 46 1.0 5.0 0.00 0.50 0.50 90 1017.2
20260507194032 45 39 1.0 5.0 0.00 0.50 0.50 90 1017.2
20260507193549 45 76 1.0 5.0 0.00 0.50 0.50 90 1017.2
20260507193023 45 26 1.0 6.0 0.00 0.50 0.50 90 1017.1
20260507192530 45 38 2.0 6.0 0.00 0.50 0.50 90 1017.1
20260507192051 45 60 2.0 6.0 0.00 0.50 0.50 90 1017.1
20260507191504 45 17 1.0 8.0 0.00 0.50 0.50 90 1017.0
20260507191016 45 15 2.0 8.0 0.00 0.50 0.50 90 1017.0
20260507190537 45 22 2.0 6.0 0.00 0.50 0.50 90 1016.9
20260507190052 45 30 1.0 9.0 0.00 0.50 0.50 90 1016.9
20260507185504 45 22 3.0 9.0 0.00 0.50 0.50 90 1016.8
20260507185020 45 23 2.0 9.0 0.00 0.50 0.50 90 1016.8
20260507184538 45 34 3.0 7.0 0.00 0.50 0.50 90 1016.8
20260507184057 45 22 1.0 7.0 0.00 0.50 0.50 90 1016.6
20260507183513 45 33 1.0 5.0 0.00 0.50 0.50 90 1016.6
20260507183159 45 37 2.0 6.0 0.00 0.50 0.50 90 1016.6
20260507182501 45 5 1.0 5.0 0.00 0.50 0.50 90 1016.5
20260507182029 45 10 1.0 9.0 0.00 0.50 0.50 90 1016.4
20260507181545 45 36 1.0 9.0 0.00 0.50 0.50 90 1016.4
20260507181008 45 5 1.0 9.0 0.00 0.50 0.50 90 1016.3
20260507180526 45 32 2.0 9.0 0.00 0.50 0.50 90 1016.3
20260507180045 45 30 2.0 9.0 0.00 0.50 0.50 90 1016.3
20260507175606 45 324 3.0 9.0 0.00 0.50 0.50 90 1016.2
20260507175028 45 39 1.0 6.0 0.00 0.50 0.50 90 1016.1
20260507174545 46 360 2.0 8.0 0.00 0.50 0.50 90 1016.1
20260507174009 46 22 1.0 8.0 0.00 0.50 0.50 90 1016.1
20260507173527 46 30 0.0 5.0 0.00 0.50 0.50 90 1016.1
20260507173105 46 37 1.0 5.0 0.00 0.50 0.50 90 1016.0
20260507172501 46 53 0.0 5.0 0.00 0.50 0.50 90 1016.0
20260507172030 46 13 0.0 5.0 0.01 0.50 0.50 90 1015.9
20260507171550 46 355 0.0 5.0 0.01 0.50 0.50 90 1015.8
20260507171008 46 360 2.0 6.0 0.01 0.50 0.50 90 1015.8
20260507170527 46 355 2.0 6.0 0.01 0.50 0.50 90 1015.8
20260507170048 46 51 1.0 6.0 0.01 0.50 0.50 90 1015.7
20260507165508 46 355 1.0 6.0 0.01 0.50 0.50 90 1015.6
20260507165029 46 47 1.0 6.0 0.01 0.50 0.50 89 1015.5
20260507164554 46 48 1.0 6.0 0.01 0.50 0.50 89 1015.5
20260507164004 46 304 2.0 8.0 0.01 0.50 0.50 89 1015.5
20260507163531 47 350 3.0 8.0 0.01 0.50 0.50 90 1015.5
20260507163050 47 343 1.0 6.0 0.01 0.50 0.50 90 1015.3
20260507162504 47 10 0.0 4.0 0.00 0.50 0.50 90 1015.4
20260507162025 47 5 1.0 6.0 0.00 0.50 0.50 90 1015.4
20260507161603 47 17 0.0 6.0 0.01 0.50 0.50 90 1015.4
20260507161004 47 26 3.0 6.0 0.02 0.50 0.50 90 1015.4
20260507160532 47 19 1.0 9.0 0.02 0.50 0.50 90 1015.4
20260507155509 47 40 2.0 8.0 0.04 0.50 0.50 90 1015.3
20260507155025 47 329 2.0 8.0 0.04 0.50 0.50 90 1015.3
20260507154545 47 19 1.0 6.0 0.05 0.50 0.50 90 1015.3
20260507154001 47 5 2.0 9.0 0.05 0.50 0.50 90 1015.3
20260507153529 47 355 4.0 9.0 0.06 0.50 0.50 90 1015.3
20260507153049 47 341 2.0 9.0 0.06 0.50 0.50 90 1015.2
20260507152506 47 36 3.0 9.0 0.06 0.50 0.50 90 1015.2
20260507152026 47 42 2.0 10.0 0.06 0.50 0.50 89 1015.2
20260507151545 47 20 4.0 10.0 0.05 0.49 0.49 90 1015.2
20260507151001 47 46 3.0 7.0 0.04 0.48 0.48 90 1015.2
20260507150530 47 86 1.0 4.0 0.03 0.47 0.47 90 1015.2
20260507150049 47 65 0.0 5.0 0.02 0.46 0.46 89 1015.1
20260507145507 47 52 2.0 5.0 0.02 0.46 0.46 89 1015.1
20260507145029 47 36 2.0 5.0 0.02 0.46 0.46 88 1015.1
20260507144555 47 42 1.0 5.0 0.01 0.45 0.45 88 1015.1
20260507144059 47 23 1.0 8.0 0.01 0.45 0.45 88 1015.2
20260507143516 47 23 3.0 8.0 0.00 0.44 0.44 88 1015.1
20260507143037 47 21 1.0 4.0 0.00 0.44 0.44 88 1015.2
20260507142557 47 64 1.0 4.0 0.00 0.44 0.44 88 1015.1
20260507142013 47 82 1.0 6.0 0.00 0.44 0.44 88 1015.0
20260507141532 47 59 2.0 9.0 0.00 0.44 0.44 88 1015.1
20260507141052 47 65 1.0 9.0 0.00 0.44 0.44 88 1015.0
20260507140512 47 17 4.0 9.0 0.00 0.44 0.44 88 1014.9
20260507140032 47 41 3.0 9.0 0.00 0.44 0.44 88 1015.0
20260507135550 47 59 3.0 8.0 0.00 0.44 0.44 88 1014.9
20260507135013 47 44 2.0 9.0 0.00 0.44 0.44 88 1014.9
20260507134532 47 75 4.0 9.0 0.00 0.44 0.44 88 1014.8
20260507134050 47 44 2.0 8.0 0.00 0.44 0.44 88 1014.7
20260507133508 47 67 4.0 9.0 0.00 0.44 0.44 88 1014.7
20260507133035 47 61 3.0 9.0 0.00 0.44 0.44 88 1014.6
20260507132554 47 57 2.0 7.0 0.00 0.44 0.44 88 1014.5
20260507132020 47 88 3.0 7.0 0.00 0.44 0.44 88 1014.5
20260507131539 47 39 2.0 7.0 0.00 0.44 0.44 87 1014.5
20260507131005 47 57 1.0 11.0 0.00 0.44 0.44 87 1014.5
20260507130532 47 57 5.0 11.0 0.00 0.44 0.44 87 1014.5
20260507130050 47 48 2.0 8.0 0.00 0.44 0.44 87 1014.4
20260507125508 47 333 3.0 11.0 0.00 0.44 0.44 87 1014.2
20260507125031 47 26 4.0 11.0 0.00 0.44 0.44 87 1014.2
20260507124547 48 29 1.0 9.0 0.00 0.44 0.44 87 1014.2
20260507124003 48 51 3.0 9.0 0.00 0.44 0.44 87 1014.1
20260507123527 48 13 3.0 6.0 0.00 0.44 0.44 88 1014.1
20260507123047 47 46 2.0 11.0 0.00 0.44 0.44 87 1014.0